Cloud_Cover
70 75 4 0 0 0 4 13 51 82 53 5 9 4 0 0 3 13 8 17 6 42 5 4 0 0 6 8 0 0 0 9 62 97 100 1 0 0 0 0 0 0 1
99 100 27 0 0 3 0 1 5 13 5 5 97 7 0 4 1 4 10 14 1 26 7 46 98 1 45 25 7 4 4 0 0 2 0 0 0 0 0 0 0 0 0
99 100 67 0 0 0 0 0 0 0 1 0 0 0 0 0 0 17 4 5 67 30 100 13 5 34 35 0 4 1 4 0 0 0 0 0 5 3 5 5 8 5 0
80 100 100 4 0 0 0 0 0 0 0 0 0 0 0 0 0 0 1 4 32 5 30 5 5 18 9 8 3 3 6 0 0 0 0 0 1 18 5 5 14 15 6
100 99 100 2 0 0 0 0 0 0 0 0 0 0 0 0 0 1 4 4 25 5 5 5 5 13 14 6 12 7 5 2 0 0 0 0 4 10 42 34 68 82 57
100 90 11 13 0 0 0 5 0 0 0 0 0 0 0 0 0 0 0 0 0 0 2 5 12 13 17 19 22 5 5 5 23 4 2 5 5 9 100 66 5 18 92
52 100 59 0 1 20 11 21 99 67 5 3 0 0 0 0 0 0 0 0 0 0 0 2 2 24 5 5 15 5 5 5 5 5 5 5 6 8 54 24 5 5 59
89 83 96 94 81 38 57 37 5 25 7 3 3 3 2 3 0 0 2 3 2 0 0 8 10 0 0 2 4 0 2 5 5 5 5 5 5 24 20 5 5 5 25
9 88 100 100 99 100 71 0 1 2 0 1 7 5 3 0 0 0 0 6 5 5 20 6 78 73 0 2 5 5 0 0 0 1 5 5 5 5 5 5 5 5 5
0 0 0 96 96 100 100 49 0 0 0 0 0 0 0 0 0 0 0 0 5 5 5 7 23 100 59 0 0 0 0 0 0 0 0 5 5 5 14 5 5 7 14
0 0 0 0 0 56 100 100 41 0 0 0 0 1 0 0 0 0 0 0 2 5 0 0 0 19 44 3 0 0 3 4 4 1 3 4 2 3 5 6 5 25 76
0 0 0 0 0 0 5 57 100 99 12 1 0 2 6 4 3 0 4 0 0 0 0 1 0 0 5 11 17 5 5 1 4 5 2 1 0 2 4 5 2 0 0
0 0 0 0 0 0 0 0 0 44 100 100 90 30 29 6 32 27 32 24 15 26 27 19 29 9 14 21 19 18 10 8 5 5 5 5 5 3 12 5 5 5 0
0 0 0 0 0 1 3 1 5 5 5 12 92 100 72 58 53 51 40 28 31 28 40 66 70 33 23 14 5 2 6 21 28 11 5 5 4 5 5 5 5 5 8
1 3 5 3 1 0 0 0 0 0 0 0 3 3 72 100 98 80 63 40 32 31 40 97 100 100 68 32 15 12 4 3 4 16 8 5 5 5 5 5 5 5 5
5 5 3 3 5 5 23 5 5 5 5 5 4 5 16 65 100 100 92 64 40 41 38 63 100 100 100 88 46 28 24 52 5 5 5 5 5 3 5 5 5 5 71
4 4 5 5 5 5 5 5 5 5 14 18 3 0 4 5 21 71 100 85 43 35 54 90 99 100 100 100 94 46 86 66 32 5 5 5 5 57 41 73 6 30 5
5 5 5 5 5 9 22 25 75 40 36 32 27 5 5 5 4 0 20 100 89 98 98 100 100 100 100 100 100 100 100 93 78 9 5 54 92 88 11 87 95 100 66
5 5 5 0 0 0 0 0 0 0 2 2 1 0 1 2 3 2 0 3 99 98 100 100 100 100 100 100 100 99 100 100 100 100 75 98 100 64 80 100 100 87 60
5 5 5 4 4 5 4 14 6 38 40 74 6 1 0 0 0 0 0 5 37 100 100 100 100 100 100 100 100 100 100 100 100 100 100 100 100 100 100 100 100 83 94
5 5 6 5 5 5 4 0 0 2 0 1 5 3 0 0 0 0 0 0 33 90 72 100 100 100 100 100 100 100 100 100 100 100 100 100 100 100 100 100 100 99 100
6 10 7 5 5 5 16 97 100 100 50 0 0 0 0 0 0 0 0 0 16 31 37 58 99 100 100 100 100 100 100 88 100 100 100 100 100 100 100 100 100 98 100
0 0 2 2 26 62 56 100 100 75 1 0 0 0 0 0 0 0 0 0 2 24 18 9 59 98 69 69 87 66 100 68 100 100 100 100 100 100 100 100 100 100 100
3 4 4 1 77 100 100 100 100 100 97 2 0 0 0 0 0 0 0 6 15 23 65 90 20 78 10 10 100 100 100 20 69 100 100 100 100 100 100 100 100 100 100
0 0 0 43 100 100 100 100 100 100 100 75 0 0 0 0 0 0 0 7 25 29 34 50 90 100 85 73 96 99 100 100 30 80 98 100 100 100 100 100 100 100 100
0 0 1 100 100 100 100 100 100 100 100 100 36 1 0 0 0 0 5 9 4 14 29 34 46 88 100 100 100 100 100 68 94 92 99 93 100 98 100 100 100 100 100